This demonstration page uses our WeatherBlox Daily Observations layout. Learn more.

Left ArrowRight Arrow

Hourly Observations for April 22, 2016

Temp ( °F °C ) Dew Point ( °F °C ) Humidity (%) Winds ( mph kmh ) Pressure ( in mb ) Visibility ( mi km ) Precip ( " mm )
12:51 am 00:51 Clear 62 16.7 17 -8.3 17 17 S 6 9 29.79 1009 10 16 0.00 0.00
1:51 am 01:51 Clear 59 15 17 -8.3 19 19 NE 3 6 29.79 1009 10 16 0.00 0.00
2:51 am 02:51 Clear 59 15 17 -8.3 19 19 SE 6 9 29.79 1009 10 16 0.00 0.00
3:51 am 03:51 Clear 59 15 17 -8.3 19 19 ESE 5 7 29.80 1009 10 16 0.00 0.00
4:51 am 04:51 Clear 60 15.6 18 -7.8 19 19 SE 9 15 29.82 1010 10 16 0.00 0.00
5:51 am 05:51 Sunny 61 16.1 18 -7.8 19 19 ESE 10 17 29.84 1011 10 16 0.00 0.00
6:51 am 06:51 Sunny 62 16.7 22 -5.6 21 21 SSE 10 17 29.88 1012 10 16 0.00 0.00
7:51 am 07:51 Sunny 73 22.8 26 -3.3 17 17 SE 9 15 29.89 1012 10 16 0.00 0.00
8:51 am 08:51 Sunny 75 23.9 29 -1.7 18 18 SSE 6 9 29.89 1012 10 16 0.00 0.00
9:51 am 09:51 Sunny 79 26.1 33 0.6 19 19 SSE 7 11 29.89 1012 10 16 0.00 0.00
10:51 am 10:51 Sunny 83 28.3 35 1.7 18 18 SSE 7 11 29.88 1012 10 16 0.00 0.00
11:51 am 11:51 Sunny 87 30.6 35 1.7 16 16 VRB 7 11 29.84 1011 10 16 0.00 0.00
12:51 pm 12:51 Sunny 88 31.1 27 -2.8 11 11 VRB 5 7 29.82 1010 10 16 0.00 0.00
1:51 pm 13:51 Sunny 91 32.8 27 -2.8 10 10 S 17 28 29.80 1009 10 16 0.00 0.00
2:51 pm 14:51 Sunny 92 33.3 23 -5 8 8 WSW 8 13 29.75 1008 10 16 0.00 0.00
3:51 pm 15:51 Sunny 93 33.9 22 -5.6 7 7 S 14 22 29.71 1006 10 16 0.00 0.00
4:51 pm 16:51 Sunny 93 33.9 24 -4.4 8 8 WSW 9 15 29.69 1005 10 16 0.00 0.00
5:51 pm 17:51 Sunny 91 32.8 25 -3.9 9 9 WNW 17 28 29.69 1006 10 16 0.00 0.00
6:51 pm 18:51 Sunny 86 30 24 -4.4 10 10 W 16 26 29.71 1006 10 16 0.00 0.00
7:51 pm 19:51 Clear 81 27.2 23 -5 12 12 WNW 12 19 29.73 1007 10 16 0.00 0.00
8:51 pm 20:51 Clear 77 25 19 -7.2 11 11 NW 10 17 29.76 1008 10 16 0.00 0.00
9:51 pm 21:51 Clear 75 23.9 20 -6.7 12 12 NW 12 19 29.79 1009 10 16 0.00 0.00
10:51 pm 22:51 Clear 70 21.1 21 -6.1 16 16 NE 7 11 29.81 1010 10 16 0.00 0.00
11:51 pm 23:51 Clear 71 21.7 23 -5 16 16 E 3 6 29.82 1010 10 16 0.00 0.00

Powered by AerisWeather